Time,TemperatureF,DewpointF,PressureIn,WindDirection,WindDirectionDegrees,WindSpeedMPH,WindSpeedGustMPH,Humidity,HourlyPrecipIn,Conditions,Clouds,dailyrainin,SolarRadiationWatts/m^2,SoftwareType,DateUTC
2013-03-04 00:02:00,24.2,20.0,29.89,WNW,282,7.0,-999.0,85,-99.99,,,0.00,0,weatherlink.com 1.10,2013-03-04 05:02:00,
2013-03-04 00:17:00,24.2,20.0,29.89,SW,232,12.0,-999.0,83,-99.99,,,0.00,0,weatherlink.com 1.10,2013-03-04 05:17:00,
2013-03-04 00:32:00,24.0,20.0,29.89,WSW,251,5.0,-999.0,83,-99.99,,,0.00,0,weatherlink.com 1.10,2013-03-04 05:32:00,
2013-03-04 00:47:00,23.9,20.0,29.89,West,262,7.0,-999.0,83,-99.99,,,0.00,0,weatherlink.com 1.10,2013-03-04 05:47:00,
2013-03-04 01:02:00,23.8,19.0,29.89,West,263,9.0,-999.0,83,-99.99,,,0.00,0,weatherlink.com 1.10,2013-03-04 06:02:00,
2013-03-04 01:17:00,23.8,19.0,29.89,WSW,248,11.0,-999.0,83,-99.99,,,0.00,0,weatherlink.com 1.10,2013-03-04 06:17:00,
2013-03-04 01:32:00,23.9,19.0,29.89,West,279,6.0,-999.0,82,-99.99,,,0.00,0,weatherlink.com 1.10,2013-03-04 06:32:00,
2013-03-04 01:47:00,23.9,19.0,29.90,West,263,8.0,-999.0,82,-99.99,,,0.00,0,weatherlink.com 1.10,2013-03-04 06:47:00,
2013-03-04 02:02:00,23.9,19.0,29.90,West,259,12.0,-999.0,82,-99.99,,,0.00,0,weatherlink.com 1.10,2013-03-04 07:02:00,
2013-03-04 02:17:00,24.0,19.0,29.90,WSW,252,2.0,-999.0,82,-99.99,,,0.00,0,weatherlink.com 1.10,2013-03-04 07:17:00,
2013-03-04 02:32:00,24.0,19.0,29.89,WSW,246,7.0,-999.0,81,-99.99,,,0.00,0,weatherlink.com 1.10,2013-03-04 07:32:00,
2013-03-04 02:47:00,24.1,19.0,29.89,SW,222,7.0,-999.0,81,-99.99,,,0.00,0,weatherlink.com 1.10,2013-03-04 07:47:00,
2013-03-04 03:02:00,24.0,19.0,29.89,WSW,249,10.0,-999.0,81,-99.99,,,0.00,0,weatherlink.com 1.10,2013-03-04 08:02:00,
2013-03-04 03:17:00,24.0,19.0,29.90,WSW,249,14.0,-999.0,81,-99.99,,,0.00,0,weatherlink.com 1.10,2013-03-04 08:17:00,
2013-03-04 03:32:00,23.8,19.0,29.90,WSW,243,12.0,-999.0,83,-99.99,,,0.00,0,weatherlink.com 1.10,2013-03-04 08:32:00,
2013-03-04 03:47:00,23.5,19.0,29.90,WNW,289,8.0,-999.0,84,-99.99,,,0.00,0,weatherlink.com 1.10,2013-03-04 08:47:00,
2013-03-04 04:02:00,23.3,20.0,29.90,SW,225,9.0,-999.0,85,-99.99,,,0.00,0,weatherlink.com 1.10,2013-03-04 09:02:00,
2013-03-04 04:17:00,23.4,19.0,29.91,WSW,250,10.0,-999.0,83,-99.99,,,0.00,0,weatherlink.com 1.10,2013-03-04 09:17:00,
2013-03-04 04:32:00,23.4,19.0,29.91,West,265,7.0,-999.0,84,-99.99,,,0.00,0,weatherlink.com 1.10,2013-03-04 09:32:00,
2013-03-04 04:47:00,23.3,19.0,29.92,West,274,6.0,-999.0,84,-99.99,,,0.00,0,weatherlink.com 1.10,2013-03-04 09:47:00,
2013-03-04 05:02:00,23.2,19.0,29.92,WNW,284,9.0,-999.0,85,-99.99,,,0.00,0,weatherlink.com 1.10,2013-03-04 10:02:00,
2013-03-04 05:17:00,22.9,19.0,29.93,WSW,238,9.0,-999.0,86,-99.99,,,0.00,0,weatherlink.com 1.10,2013-03-04 10:17:00,
2013-03-04 05:32:00,22.7,19.0,29.93,WSW,241,7.0,-999.0,87,-99.99,,,0.00,0,weatherlink.com 1.10,2013-03-04 10:32:00,
2013-03-04 05:47:00,22.7,19.0,29.93,WSW,246,6.0,-999.0,87,-99.99,,,0.00,0,weatherlink.com 1.10,2013-03-04 10:47:00,
2013-03-04 06:02:00,22.7,19.0,29.94,West,263,9.0,-999.0,87,-99.99,,,0.00,0,weatherlink.com 1.10,2013-03-04 11:02:00,
2013-03-04 06:17:00,22.9,19.0,29.93,West,267,6.0,-999.0,85,-99.99,,,0.00,0,weatherlink.com 1.10,2013-03-04 11:17:00,
2013-03-04 06:32:00,23.2,19.0,29.94,SW,227,10.0,-999.0,83,-99.99,,,0.00,0,weatherlink.com 1.10,2013-03-04 11:32:00,
2013-03-04 06:48:00,23.3,19.0,29.95,WNW,284,6.0,-999.0,82,-99.99,,,0.00,0,weatherlink.com 1.10,2013-03-04 11:48:00,
2013-03-04 07:03:00,23.2,18.0,29.95,WSW,241,11.0,-999.0,81,-99.99,,,0.00,11,weatherlink.com 1.10,2013-03-04 12:03:00,
2013-03-04 07:18:00,23.0,18.0,29.95,WNW,288,6.0,-999.0,81,-99.99,,,0.00,21,weatherlink.com 1.10,2013-03-04 12:18:00,
2013-03-04 07:33:00,22.8,18.0,29.95,West,261,7.0,-999.0,81,-99.99,,,0.00,37,weatherlink.com 1.10,2013-03-04 12:33:00,
2013-03-04 07:48:00,22.8,18.0,29.96,WSW,252,12.0,-999.0,81,-99.99,,,0.00,62,weatherlink.com 1.10,2013-03-04 12:48:00,
2013-03-04 08:03:00,22.8,18.0,29.96,SW,221,13.0,-999.0,80,-99.99,,,0.00,98,weatherlink.com 1.10,2013-03-04 13:03:00,
2013-03-04 08:18:00,23.0,17.0,29.96,WSW,248,5.0,-999.0,79,-99.99,,,0.00,128,weatherlink.com 1.10,2013-03-04 13:18:00,
2013-03-04 08:33:00,23.2,18.0,29.96,WNW,284,12.0,-999.0,79,-99.99,,,0.00,167,weatherlink.com 1.10,2013-03-04 13:33:00,
2013-03-04 08:48:00,23.6,18.0,29.95,West,269,10.0,-999.0,78,-99.99,,,0.00,193,weatherlink.com 1.10,2013-03-04 13:48:00,
2013-03-04 09:02:00,24.0,18.0,29.96,West,260,15.0,-999.0,78,-99.99,,,0.00,181,weatherlink.com 1.10,2013-03-04 14:02:00,
2013-03-04 09:18:00,23.9,18.0,29.96,WSW,244,14.0,-999.0,77,-99.99,,,0.00,199,weatherlink.com 1.10,2013-03-04 14:18:00,
2013-03-04 09:33:00,24.0,18.0,29.96,WSW,247,9.0,-999.0,77,-99.99,,,0.00,199,weatherlink.com 1.10,2013-03-04 14:33:00,
2013-03-04 09:48:00,24.3,18.0,29.96,West,271,16.0,-999.0,77,-99.99,,,0.00,214,weatherlink.com 1.10,2013-03-04 14:48:00,
2013-03-04 10:03:00,24.5,18.0,29.97,West,281,5.0,-999.0,76,-99.99,,,0.00,202,weatherlink.com 1.10,2013-03-04 15:03:00,
2013-03-04 10:18:00,24.9,18.0,29.97,WSW,249,5.0,-999.0,76,-99.99,,,0.00,239,weatherlink.com 1.10,2013-03-04 15:18:00,
2013-03-04 10:33:00,25.1,18.0,29.96,West,275,10.0,-999.0,75,-99.99,,,0.00,279,weatherlink.com 1.10,2013-03-04 15:33:00,
2013-03-04 10:48:00,25.5,19.0,29.96,WSW,253,14.0,-999.0,75,-99.99,,,0.00,299,weatherlink.com 1.10,2013-03-04 15:48:00,
2013-03-04 11:03:00,25.7,18.0,29.96,WSW,255,10.0,-999.0,74,-99.99,,,0.00,276,weatherlink.com 1.10,2013-03-04 16:03:00,
2013-03-04 11:18:00,26.0,19.0,29.96,WSW,244,16.0,-999.0,74,-99.99,,,0.00,265,weatherlink.com 1.10,2013-03-04 16:18:00,
2013-03-04 11:33:00,26.0,19.0,29.96,WNW,283,6.0,-999.0,75,-99.99,,,0.00,232,weatherlink.com 1.10,2013-03-04 16:33:00,
2013-03-04 11:48:00,26.2,19.0,29.96,West,271,13.0,-999.0,75,-99.99,,,0.00,281,weatherlink.com 1.10,2013-03-04 16:48:00,
2013-03-04 12:03:00,26.4,20.0,29.96,WSW,239,12.0,-999.0,75,-99.99,,,0.00,255,weatherlink.com 1.10,2013-03-04 17:03:00,
2013-03-04 12:18:00,26.5,20.0,29.96,SW,223,13.0,-999.0,75,-99.99,,,0.00,320,weatherlink.com 1.10,2013-03-04 17:18:00,
2013-03-04 12:33:00,26.7,20.0,29.96,West,260,19.0,-999.0,75,-99.99,,,0.00,345,weatherlink.com 1.10,2013-03-04 17:33:00,
2013-03-04 12:48:00,26.9,20.0,29.96,West,261,14.0,-999.0,74,-99.99,,,0.00,304,weatherlink.com 1.10,2013-03-04 17:48:00,
2013-03-04 13:03:00,27.2,20.0,29.95,West,272,7.0,-999.0,73,-99.99,,,0.00,299,weatherlink.com 1.10,2013-03-04 18:03:00,
2013-03-04 13:18:00,27.5,20.0,29.95,West,271,10.0,-999.0,72,-99.99,,,0.00,318,weatherlink.com 1.10,2013-03-04 18:18:00,
2013-03-04 13:33:00,27.7,19.0,29.96,SW,236,14.0,-999.0,71,-99.99,,,0.00,301,weatherlink.com 1.10,2013-03-04 18:33:00,
2013-03-04 13:48:00,27.9,20.0,29.95,West,266,10.0,-999.0,71,-99.99,,,0.00,329,weatherlink.com 1.10,2013-03-04 18:48:00,
2013-03-04 14:03:00,28.1,20.0,29.95,WSW,252,15.0,-999.0,71,-99.99,,,0.00,327,weatherlink.com 1.10,2013-03-04 19:03:00,
2013-03-04 14:19:00,28.9,20.0,29.95,West,269,13.0,-999.0,70,-99.99,,,0.00,336,weatherlink.com 1.10,2013-03-04 19:19:00,
2013-03-04 14:34:00,28.9,20.0,29.95,West,263,5.0,-999.0,68,-99.99,,,0.00,338,weatherlink.com 1.10,2013-03-04 19:34:00,
2013-03-04 14:49:00,29.2,20.0,29.95,WSW,247,7.0,-999.0,68,-99.99,,,0.00,381,weatherlink.com 1.10,2013-03-04 19:49:00,
2013-03-04 15:04:00,29.6,20.0,29.95,WNW,282,11.0,-999.0,68,-99.99,,,0.00,251,weatherlink.com 1.10,2013-03-04 20:04:00,
2013-03-04 15:19:00,30.0,20.0,29.95,WNW,290,8.0,-999.0,67,-99.99,,,0.00,308,weatherlink.com 1.10,2013-03-04 20:19:00,
2013-03-04 15:34:00,30.1,20.0,29.95,West,269,15.0,-999.0,67,-99.99,,,0.00,253,weatherlink.com 1.10,2013-03-04 20:34:00,
2013-03-04 15:49:00,29.8,20.0,29.95,WSW,254,9.0,-999.0,67,-99.99,,,0.00,239,weatherlink.com 1.10,2013-03-04 20:49:00,
2013-03-04 16:04:00,29.9,20.0,29.96,West,275,18.0,-999.0,67,-99.99,,,0.00,186,weatherlink.com 1.10,2013-03-04 21:04:00,
2013-03-04 16:19:00,29.6,20.0,29.96,WNW,292,15.0,-999.0,67,-99.99,,,0.00,149,weatherlink.com 1.10,2013-03-04 21:19:00,
2013-03-04 16:34:00,29.6,20.0,29.96,WNW,289,16.0,-999.0,68,-99.99,,,0.00,93,weatherlink.com 1.10,2013-03-04 21:34:00,
2013-03-04 16:49:00,29.8,20.0,29.96,WSW,256,6.0,-999.0,68,-99.99,,,0.00,102,weatherlink.com 1.10,2013-03-04 21:49:00,
2013-03-04 17:04:00,29.7,20.0,29.96,WSW,254,16.0,-999.0,68,-99.99,,,0.00,32,weatherlink.com 1.10,2013-03-04 22:04:00,
2013-03-04 17:19:00,29.6,21.0,29.97,SW,227,13.0,-999.0,69,-99.99,,,0.00,12,weatherlink.com 1.10,2013-03-04 22:19:00,
2013-03-04 17:34:00,29.6,21.0,29.97,West,266,12.0,-999.0,69,-99.99,,,0.00,0,weatherlink.com 1.10,2013-03-04 22:34:00,
2013-03-04 17:49:00,29.4,21.0,29.98,WSW,258,14.0,-999.0,70,-99.99,,,0.00,0,weatherlink.com 1.10,2013-03-04 22:49:00,
2013-03-04 18:04:00,29.4,21.0,29.98,West,263,10.0,-999.0,71,-99.99,,,0.00,0,weatherlink.com 1.10,2013-03-04 23:04:00,
2013-03-04 18:19:00,29.4,21.0,29.98,NW,308,8.0,-999.0,71,-99.99,,,0.00,0,weatherlink.com 1.10,2013-03-04 23:19:00,
2013-03-04 18:34:00,29.4,21.0,29.99,West,274,7.0,-999.0,72,-99.99,,,0.00,0,weatherlink.com 1.10,2013-03-04 23:34:00,
2013-03-04 18:49:00,29.6,22.0,29.99,WSW,249,7.0,-999.0,72,-99.99,,,0.00,0,weatherlink.com 1.10,2013-03-04 23:49:00,
2013-03-04 19:04:00,29.7,22.0,29.99,WNW,289,8.0,-999.0,73,-99.99,,,0.00,0,weatherlink.com 1.10,2013-03-05 00:04:00,
2013-03-04 19:19:00,29.7,22.0,30.00,WSW,253,5.0,-999.0,73,-99.99,,,0.00,0,weatherlink.com 1.10,2013-03-05 00:19:00,
2013-03-04 19:34:00,29.8,22.0,30.00,WNW,295,10.0,-999.0,73,-99.99,,,0.00,0,weatherlink.com 1.10,2013-03-05 00:34:00,
2013-03-04 19:49:00,29.8,22.0,30.00,WSW,252,10.0,-999.0,74,-99.99,,,0.00,0,weatherlink.com 1.10,2013-03-05 00:49:00,
2013-03-04 20:04:00,29.8,22.0,30.00,WNW,289,11.0,-999.0,74,-99.99,,,0.00,0,weatherlink.com 1.10,2013-03-05 01:04:00,
2013-03-04 20:19:00,29.8,22.0,30.01,WSW,255,11.0,-999.0,74,-99.99,,,0.00,0,weatherlink.com 1.10,2013-03-05 01:19:00,
2013-03-04 20:34:00,29.7,22.0,30.01,West,267,9.0,-999.0,74,-99.99,,,0.00,0,weatherlink.com 1.10,2013-03-05 01:34:00,
2013-03-04 20:49:00,29.7,22.0,30.01,WSW,250,9.0,-999.0,74,-99.99,,,0.00,0,weatherlink.com 1.10,2013-03-05 01:49:00,
2013-03-04 21:04:00,29.6,22.0,30.01,WSW,252,6.0,-999.0,74,-99.99,,,0.00,0,weatherlink.com 1.10,2013-03-05 02:04:00,
2013-03-04 21:19:00,29.6,23.0,30.02,West,280,6.0,-999.0,75,-99.99,,,0.00,0,weatherlink.com 1.10,2013-03-05 02:19:00,
2013-03-04 21:34:00,29.3,22.0,30.02,WNW,300,18.0,-999.0,74,-99.99,,,0.00,0,weatherlink.com 1.10,2013-03-05 02:34:00,
2013-03-04 21:49:00,29.0,22.0,30.03,WNW,283,4.0,-999.0,74,-99.99,,,0.00,0,weatherlink.com 1.10,2013-03-05 02:49:00,
2013-03-04 22:04:00,28.9,22.0,30.03,West,272,8.0,-999.0,74,-99.99,,,0.00,0,weatherlink.com 1.10,2013-03-05 03:04:00,
2013-03-04 22:19:00,28.7,22.0,30.03,WNW,287,12.0,-999.0,75,-99.99,,,0.00,0,weatherlink.com 1.10,2013-03-05 03:19:00,
2013-03-04 22:34:00,28.5,22.0,30.03,WNW,288,6.0,-999.0,76,-99.99,,,0.00,0,weatherlink.com 1.10,2013-03-05 03:34:00,
2013-03-04 22:49:00,28.5,22.0,30.03,West,279,14.0,-999.0,76,-99.99,,,0.00,0,weatherlink.com 1.10,2013-03-05 03:49:00,
2013-03-04 23:04:00,28.4,22.0,30.03,West,279,5.0,-999.0,76,-99.99,,,0.00,0,weatherlink.com 1.10,2013-03-05 04:04:00,
2013-03-04 23:19:00,28.3,22.0,30.03,WSW,255,7.0,-999.0,76,-99.99,,,0.00,0,weatherlink.com 1.10,2013-03-05 04:19:00,
2013-03-04 23:34:00,28.2,22.0,30.03,West,264,12.0,-999.0,77,-99.99,,,0.00,0,weatherlink.com 1.10,2013-03-05 04:34:00,
2013-03-04 23:49:00,28.0,22.0,30.03,WSW,253,11.0,-999.0,77,-99.99,,,0.00,0,weatherlink.com 1.10,2013-03-05 04:49:00,